Location: Newark
(13.8117°N, 3.6025°W)
Time: 10:31:10
(UTC+00:00)

Vanguard 2 - Pass Details

Date: 30 August 2019
Orbit: 554 x 2937 km, 32.9° (Epoch: 16 September)

Event Time Altitude Azimuth Distance (km) Brightness Sun altitude
Rises 09:32:27 0° 272° (W) 2,817 10.0 49.9°
Reaches altitude 10° 09:35:19 10° 292° (WNW) 1,830 9.2 50.6°
Maximum altitude 09:38:08 18° 338° (NNW) 1,376 8.9 51.3°
Drops below altitude 10° 09:41:04 10° 24° (NNE) 1,908 9.9 52.0°
Sets 09:44:09 0° 43° (NE) 2,991 10.9 52.7°
